Regional Weather Roundup
Issued by NWS

Home | Current Version | Previous Version | Text Only | Print | Product List | Glossary Off
Versions: 1 2 3 4 5 6 7 8 9 10 11 12 13 14 15 16 17 18 19 20 21 22 23 24 25 26 27 28 29 30 31 32 33 34 35 36 37 38 39 40 41 42 43 44 45 46 47 48 49 50

000
ASUS45 KPSR 251200
RWRAZ

PRELIMINARY ARIZONA REGIONAL HOURLY WEATHER ROUNDUP
NATIONAL WEATHER SERVICE PHOENIX AZ
500 AM MST SUN JAN 25 2015

NOTE: FAIR INDICATES FEW OR NO CLOUDS BELOW 12,000 FEET WITH NO
SIGNIFICANT WEATHER AND/OR OBSTRUCTIONS TO VISIBILITY.

AZZ001>003-036-251300-
NORTHWEST ARIZONA

CITY           SKY/WX    TMP DP  RH WIND       PRES   REMARKS
KINGMAN        CLEAR     38  20  48 E8        30.23F WCI  32
6HR MIN TEMP:  36; 6HR MAX TEMP:  51;

$$

AZZ004>008-015-016-018-251300-
NORTH CENTRAL ARIZONA

CITY           SKY/WX    TMP DP  RH WIND       PRES   REMARKS
GRAND CANYON   PTCLDY    23  16  74 VRB5      30.32S WCI  17
6HR MIN TEMP:  19; 6HR MAX TEMP:  29;

PRESCOTT       PTCLDY    27  16  63 SW7       30.24F WCI  19
6HR MIN TEMP:  27; 6HR MAX TEMP:  35;

FLAGSTAFF      NOT AVBL
PAYSON         CLEAR     43  16  33 CALM      30.22F
$$

AZZ009>014-017-251300-
NORTHEAST ARIZONA

CITY           SKY/WX    TMP DP  RH WIND       PRES   REMARKS
WINSLOW        NOT AVBL
SAINT JOHNS    CLEAR     25  19  78 S7        30.27F WCI  17
6HR MIN TEMP:  20; 6HR MAX TEMP:  31;

WINDOW ROCK    CLEAR     24  16  71 CALM      30.28S
6HR MIN TEMP:  21; 6HR MAX TEMP:  30;

$$

AZZ023-251300-
GREATER PHOENIX AREA

CITY           SKY/WX    TMP DP  RH WIND       PRES   REMARKS
PHOENIX        CLEAR     50  26  39 CALM      30.07S
6HR MIN TEMP:  50; 6HR MAX TEMP:  64;

LUKE AFB       NOT AVBL
6HR MIN TEMP:  42; 6HR MAX TEMP:  56;

DEER VALLEY    CLEAR     49  19  30 CALM      30.08S
6HR MIN TEMP:  47; 6HR MAX TEMP:  59;

SCOTTSDALE     CLEAR     47  24  40 CALM      30.09S
6HR MIN TEMP:  47; 6HR MAX TEMP:  61;

$$

AZZ027-028-251300-
SOUTHWEST MARICOPA COUNTY AND PINAL COUNTY

CITY           SKY/WX    TMP DP  RH WIND       PRES   REMARKS
CASA GRANDE    PTCLDY    50  16  25 E5        30.08R
6HR MIN TEMP:  50; 6HR MAX TEMP:  59;

GILA BEND      FAIR      47  15  27 E3        30.05F
6HR MIN TEMP:  44; 6HR MAX TEMP:  56;

$$

AZZ503-504-507>509-251300-
SOUTHEAST ARIZONA

CITY           SKY/WX    TMP DP  RH WIND       PRES   REMARKS
TUCSON         CLOUDY    53  15  22 SE7       30.11F
6HR MIN TEMP:  49; 6HR MAX TEMP:  58;

DAVIS-MONTHAN  CLOUDY    51  12  21 SE9       30.08F
6HR MIN TEMP:  51; 6HR MAX TEMP:  55;

NOGALES        CLOUDY    45  15  30 CALM      30.13S
6HR MIN TEMP:  43; 6HR MAX TEMP:  48;

SIERRA VISTA   CLOUDY    42  16  34 SE5       30.16S
6HR MIN TEMP:  40; 6HR MAX TEMP:  47;

SAFFORD        MOCLDY    40  18  41 SE10      30.18R WCI  33
6HR MIN TEMP:  37; 6HR MAX TEMP:  44;

$$

AZZ020-021-025-026-031-251300-
SOUTHWEST ARIZONA

CITY           SKY/WX    TMP DP  RH WIND       PRES   REMARKS
YUMA           MOCLDY    54  23  30 NE6       30.05S
6HR MIN TEMP:  52; 6HR MAX TEMP:  63;

$$

CAZ031-033-041-043-047-048-061-251300-
SOUTHERN CALIFORNIA

CITY           SKY/WX    TMP DP  RH WIND       PRES   REMARKS
DOWNTOWN L.A.  CLEAR     52  35  52 CALM      30.01F
6HR MIN TEMP:  52; 6HR MAX TEMP:  60;

L.A. AIRPORT   CLEAR     55  33  43 CALM      30.02F
6HR MIN TEMP:  52; 6HR MAX TEMP:  67;

SAN DIEGO      PTCLDY    55  37  50 SE3       30.01F
6HR MIN TEMP:  55; 6HR MAX TEMP:  64;

BURBANK        CLEAR     51  26  37 CALM      30.02F
6HR MIN TEMP:  50; 6HR MAX TEMP:  63;

ONTARIO        CLEAR     74  14  10 NE21G30   30.01F
6HR MIN TEMP:  71; 6HR MAX TEMP:  74;

RIVERSIDE      CLEAR     50  26  39 S3        30.06F
6HR MIN TEMP:  46; 6HR MAX TEMP:  59;

PALM SPRINGS   CLEAR     64  18  17 W6        30.10S
6HR MIN TEMP:  61; 6HR MAX TEMP:  73;

EL CENTRO NAS  CLEAR     45  18  34 W8        30.05F
6HR MIN TEMP:  43; 6HR MAX TEMP:  52;

IMPERIAL       PTCLDY    45  23  42 SW5       30.05S
6HR MIN TEMP:  45; 6HR MAX TEMP:  51;

BLYTHE         CLEAR     55  22  27 N12       30.09F
6HR MIN TEMP:  51; 6HR MAX TEMP:  63;

$$

NVZ020-UTZ003-251300-
SOUTHERN NEVADA-UTAH

CITY           SKY/WX    TMP DP  RH WIND       PRES   REMARKS
LAS VEGAS      NOT AVBL
SALT LAKE CITY MOCLDY    35  29  78 NW3       30.45F
6HR MIN TEMP:  33; 6HR MAX TEMP:  36;

$$

NMZ009-TXZ055-251300-
NEW MEXICO-WEST TEXAS

CITY           SKY/WX    TMP DP  RH WIND       PRES   REMARKS
ALBUQUERQUE    PTCLDY    27  19  72 CALM      30.26R
6HR MIN TEMP:  25; 6HR MAX TEMP:  39;

EL PASO        MOCLDY    33  26  75 N3        30.21R
6HR MIN TEMP:  30; 6HR MAX TEMP:  40;

$$


........................KEY........................
SKY/WX - SKY CONDITION/WEATHER
TMP    - TEMPERATURE IN FAHRENHEIT
DP     - DEW POINT IN FAHRENHEIT
RH     - RELATIVE HUMIDITY IN PERCENT
WIND   - DIRECTION AND SPEED IN MILES PER HOUR (MPH)
VRB    - VARIABLE WIND DIRECTION
PRES   - MEAN SEA LEVEL PRESSURE IN INCHES OF MERCURY
         F - FALLING PRESSURE   R - RISING PRESSURE
         S - STEADY PRESSURE
VSB    - VISIBILITY IN MILES
HX     - HEAT INDEX IN FAHRENHEIT
WCI    - WIND CHILL INDEX IN FAHRENHEIT
TC     - TEMPERATURE IN CELSIUS WHICH IS ALSO KNOWN AS
         TEMPERATURE IN CENTIGRADE
AFB    - AIR FORCE BASE
         LUKE AFB IS LUKE AIR FORCE BASE
         DAVIS-MONTHAN IS DAVIS-MONTHAN AIR FORCE BASE
NAS    - NAVAL AIR STATION
         EL CENTRO NAS IS EL CENTRO NAVAL AIR STATION
N/A    - NOT AVAILABLE


USA.gov is the U.S. government's official web portal to all federal, state and local government web resources and services.